WELCOME TO TCFT

Voted One Of The Best Flight Schools In The USA

 

 

BECOME AN AIRLINE PILOT

Treasure Coast Flight Training is committed to serving all of your aviation needs as a full service flight academy, aircraft rental facility, and pilot shop

 

 

Questions About Becoming An Airline Pilot?

 

 

What Our Graduates Say

 

 

The training I received with Treasure Coast Flight Training prepared me to become a professional pilot

 

Nathan Meisner

Pilot - Cessna Caravan - USA

Professional yet relaxed environment. Truly an enjoyable experience to fly with TCFT

 

Sophia

Certified Flight Instructor - China

The training I needed to get me to where I am now!

 

Enderson Rafael

Pilot - Go Airlines - Brazil

Thank you TCFT for making me an airline pilot!

 

Kyle Barrett

Pilot - GoJet Airlines - USA

Current Conditions

 

Metar

 

KSUA 221250Z 00000KT 4SM SHRA SCT010 BKN025 24/23 A3010

 

TAF

 

TAF KSUA 221121Z 2212/2312 VRB04KT P6SM -RA SCT025 BKN120 TEMPO 2212/2214 5SM SHRA BKN020 FM221400 13013KT P6SM VCSH SCT025 BKN050 OVC070 TEMPO 2214/2218 2SM SHRA BKN025 FM230200 12006KT P6SM FEW030 BKN100 OVC250

 

 

Look No Further. Get Started Today